Regional Weather Roundup
Issued by NWS

Home | Current Version | Previous Version | Text Only | Print | Product List | Glossary On
Versions: 1 2 3 4 5 6 7 8 9 10 11 12 13 14 15 16 17 18 19 20 21 22 23 24 25 26 27 28 29 30 31 32 33 34 35 36 37 38 39 40 41 42 43 44 45 46 47 48 49 50
000
ASCA42 TJSJ 281111
RWRPR
PUERTO RICO/U.S. VIRGIN ISLANDS HOURLY WEATHER ROUNDUP
NATIONAL WEATHER SERVICE SAN JUAN PR
700 AM AST MON JUL 28 2014

PRZ001-004-281200-
PUERTO RICO

CITY           SKY/WX    TMP DP  RH WIND       PRES   REMARKS
SAN JUAN LMM   MOSUNNY   81  75  83 E3        30.09R
AGUADILLA      SUNNY     75  73  94 SE5       30.10
CEIBA          SUNNY     82  72  69 E7        30.11R
$$

PRZ006-007-281200-
U.S. VIRGIN ISLANDS

CITY           SKY/WX    TMP DP  RH WIND       PRES   REMARKS
CHARLOTTE AMA  SUNNY     82  75  78 E6        30.08R
CHRISTIANSTED  SUNNY     79  73  83 N5        30.08R
$$

HOURLY WEATHER ROUNDUP FOR THE NEWS MEDIA

CITY           SKY/WX    TMP DP  RH WIND       PRES   REMARKS
MIAMI          PTCLDY    81  74  79 SW5       30.07R
ORLANDO        PTCLDY    79  76  90 SW3       30.06R
NEW YORK       PTSUNNY   72  68  87 S14       29.57S
NEWARK         CLOUDY    71  67  87 S3        29.56R
CHICAGO        PTCLDY    60  47  61 NW12      29.99R
HARTFORD       LGT RAIN  72  71  97 S8        29.62F FOG
BOSTON         CLOUDY    68  66  94 E5        29.61F FOG
DALLAS         PTCLDY    83  70  64 CALM      30.06R
PHILADELPHIA   PTSUNNY   71  67  87 SW7       29.56S



USA.gov is the U.S. government's official web portal to all federal, state and local government web resources and services.